,,Stat5,,Stat1,,Stat2,,Stat3,,Stat4,,Wind1,,Wind1,
time,status,PA1M_AVG,status,PR1M_SUM,status,RH1M_AVG,status,SR1M_AVG,status,TA1M_AVG,status,W1dAve1m,status,W1sAve1m,
2002-05-27, 00:00:00,VALID,919.881,VALID,0,VALID,97.6478,VALID,0.0339617,VALID,20.9348,VALID,130,VALID,0,
2002-05-27, 00:01:00,VALID,919.881,VALID,0,VALID,97.6363,VALID,0.0339617,VALID,20.938,VALID,130,VALID,0,
2002-05-27, 00:02:00,VALID,919.876,VALID,0,VALID,97.588,VALID,0.0509425,VALID,20.9472,VALID,130,VALID,0,
2002-05-27, 00:03:00,VALID,919.869,VALID,0,VALID,97.4927,VALID,0,VALID,20.9281,VALID,130,VALID,0,
2002-05-27, 00:04:00,VALID,919.871,VALID,0,VALID,97.4431,VALID,0,VALID,20.9216,VALID,130,VALID,0,
2002-05-27, 00:05:00,VALID,919.851,VALID,0,VALID,97.4392,VALID,0,VALID,20.902,VALID,130,VALID,0,
2002-05-27, 00:06:00,VALID,919.85,VALID,0,VALID,97.4672,VALID,0,VALID,20.9189,VALID,130,VALID,0,
2002-05-27, 00:07:00,VALID,919.835,VALID,0,VALID,97.4265,VALID,0,VALID,20.9122,VALID,130,VALID,0,
2002-05-27, 00:08:00,VALID,919.826,VALID,0,VALID,97.3896,VALID,0,VALID,20.9084,VALID,130,VALID,0,
2002-05-27, 00:09:00,VALID,919.805,VALID,0,VALID,97.3312,VALID,-0.0169808,VALID,20.9122,VALID,130,VALID,0,
2002-05-27, 00:10:00,VALID,919.789,VALID,0,VALID,97.2828,VALID,0,VALID,20.8925,VALID,130,VALID,0,
2002-05-27, 00:11:00,VALID,919.776,VALID,0,VALID,97.2129,VALID,0,VALID,20.8799,VALID,130,VALID,0,
2002-05-27, 00:12:00,VALID,919.763,VALID,0,VALID,97.1824,VALID,0,VALID,20.8774,VALID,130,VALID,0,
2002-05-27, 00:13:00,VALID,919.759,VALID,0,VALID,97.1519,VALID,0,VALID,20.8408,VALID,126,VALID,0.00334821,
2002-05-27, 00:14:00,VALID,919.747,VALID,0,VALID,97.0107,VALID,0,VALID,20.8185,VALID,91,VALID,0.40602,
2002-05-27, 00:15:00,VALID,919.737,VALID,0,VALID,96.9497,VALID,0,VALID,20.7794,VALID,72,VALID,0.526172,
2002-05-27, 00:16:00,VALID,919.721,VALID,0,VALID,96.998,VALID,0,VALID,20.7471,VALID,64,VALID,0.517756,
2002-05-27, 00:17:00,VALID,919.709,VALID,0,VALID,96.9611,VALID,-0.0169808,VALID,20.7283,VALID,53,VALID,0.535937,
2002-05-27, 00:18:00,VALID,919.704,VALID,0,VALID,96.9675,VALID,0,VALID,20.6925,VALID,50,VALID,0.348242,
2002-05-27, 00:19:00,VALID,919.694,VALID,0,VALID,97.0527,VALID,0,VALID,20.6728,VALID,40,VALID,0.354464,
2002-05-27, 00:20:00,VALID,919.695,VALID,0,VALID,97.0959,VALID,0,VALID,20.6669,VALID,36,VALID,0.38511,
2002-05-27, 00:21:00,VALID,919.675,VALID,0,VALID,97.0679,VALID,0,VALID,20.6472,VALID,36,VALID,0.333203,
2002-05-27, 00:22:00,VALID,919.664,VALID,0,VALID,97.0832,VALID,-0.0169808,VALID,20.6313,VALID,36,VALID,0.225142,
2002-05-27, 00:23:00,VALID,919.663,VALID,0,VALID,97.1023,VALID,0,VALID,20.6122,VALID,36,VALID,0.179464,
2002-05-27, 00:24:00,VALID,919.65,VALID,0,VALID,97.2345,VALID,0.0169808,VALID,20.6125,VALID,59,VALID,0.374023,
2002-05-27, 00:25:00,VALID,919.658,VALID,0,VALID,97.3795,VALID,0,VALID,20.6249,VALID,64,VALID,0.304911,
2002-05-27, 00:26:00,VALID,919.653,VALID,0,VALID,97.4303,VALID,-0.0169808,VALID,20.6214,VALID,64,VALID,0.253676,
2002-05-27, 00:27:00,VALID,919.636,VALID,0,VALID,97.499,VALID,0,VALID,20.6348,VALID,64,VALID,0.0394531,
2002-05-27, 00:28:00,VALID,919.629,VALID,0,VALID,97.56,VALID,0,VALID,20.6319,VALID,64,VALID,0,
2002-05-27, 00:29:00,VALID,919.617,VALID,0,VALID,97.588,VALID,0,VALID,20.6184,VALID,64,VALID,0,
2002-05-27, 00:30:00,VALID,919.618,VALID,0,VALID,97.5766,VALID,-0.0339617,VALID,20.6251,VALID,64,VALID,0,
2002-05-27, 00:31:00,VALID,919.603,VALID,0,VALID,97.5753,VALID,-0.0169808,VALID,20.612,VALID,64,VALID,0,
2002-05-27, 00:32:00,VALID,919.593,VALID,0,VALID,97.6134,VALID,0,VALID,20.6157,VALID,64,VALID,0,
2002-05-27, 00:33:00,VALID,919.59,VALID,0,VALID,97.6046,VALID,0.0169808,VALID,20.6087,VALID,63,VALID,0,
2002-05-27, 00:34:00,VALID,919.575,VALID,0,VALID,97.5855,VALID,0.0169808,VALID,20.6087,VALID,63,VALID,0,
2002-05-27, 00:35:00,VALID,919.558,VALID,0,VALID,97.588,VALID,0,VALID,20.609,VALID,63,VALID,0,
2002-05-27, 00:36:00,VALID,919.552,VALID,0,VALID,97.5206,VALID,0.0169808,VALID,20.5993,VALID,63,VALID,0,
2002-05-27, 00:37:00,VALID,919.554,VALID,0,VALID,97.485,VALID,-0.0169808,VALID,20.5931,VALID,63,VALID,0,
2002-05-27, 00:38:00,VALID,919.527,VALID,0,VALID,97.3922,VALID,-0.0169808,VALID,20.5869,VALID,63,VALID,0,
2002-05-27, 00:39:00,VALID,919.517,VALID,0,VALID,97.2994,VALID,-0.0339617,VALID,20.5508,VALID,63,VALID,0,
2002-05-27, 00:40:00,VALID,919.515,VALID,0,VALID,97.2714,VALID,-0.0169808,VALID,20.5349,VALID,61,VALID,0.0501894,
2002-05-27, 00:41:00,VALID,919.506,VALID,0,VALID,97.2599,VALID,0,VALID,20.5285,VALID,50,VALID,0.118527,
2002-05-27, 00:42:00,VALID,919.501,VALID,0,VALID,97.218,VALID,0,VALID,20.5088,VALID,36,VALID,0.31543,
2002-05-27, 00:43:00,VALID,919.498,VALID,0,VALID,97.143,VALID,-0.0339617,VALID,20.4795,VALID,28,VALID,0.324554,
2002-05-27, 00:44:00,VALID,919.488,VALID,0,VALID,97.1786,VALID,0,VALID,20.4606,VALID,28,VALID,0.409007,
2002-05-27, 00:45:00,VALID,919.483,VALID,0,VALID,97.1773,VALID,0,VALID,20.4571,VALID,24,VALID,0.639844,
2002-05-27, 00:46:00,VALID,919.473,VALID,0,VALID,97.2231,VALID,-0.0169808,VALID,20.4445,VALID,17,VALID,0.581676,
2002-05-27, 00:47:00,VALID,919.463,VALID,0,VALID,97.3629,VALID,0,VALID,20.4146,VALID,13,VALID,0.303125,
2002-05-27, 00:48:00,VALID,919.442,VALID,0,VALID,97.5435,VALID,0,VALID,20.4313,VALID,355,VALID,0.297461,
2002-05-27, 00:49:00,VALID,919.431,VALID,0,VALID,97.7457,VALID,-0.0169808,VALID,20.4765,VALID,305,VALID,0.293304,
2002-05-27, 00:50:00,VALID,919.422,VALID,0,VALID,97.8678,VALID,0.0339617,VALID,20.5155,VALID,308,VALID,0.21829,
2002-05-27, 00:51:00,VALID,919.404,VALID,0,VALID,97.9568,VALID,0,VALID,20.5314,VALID,314,VALID,0.0330078,
2002-05-27, 00:52:00,VALID,919.395,VALID,0,VALID,98.0305,VALID,-0.0339617,VALID,20.5444,VALID,352,VALID,0.38589,
2002-05-27, 00:53:00,VALID,919.381,VALID,0,VALID,98.0445,VALID,-0.0169808,VALID,20.5707,VALID,11,VALID,0.642857,
2002-05-27, 00:54:00,VALID,919.372,VALID,0,VALID,98.0941,VALID,-0.0169808,VALID,20.5734,VALID,352,VALID,0.800195,
2002-05-27, 00:55:00,VALID,919.355,VALID,0,VALID,98.0801,VALID,0,VALID,20.5659,VALID,10,VALID,0.398438,
2002-05-27, 00:56:00,VALID,919.349,VALID,0,VALID,98.075,VALID,0.0509425,VALID,20.5568,VALID,12,VALID,0.420267,
2002-05-27, 00:57:00,VALID,919.328,VALID,0,VALID,98.1056,VALID,0.0509425,VALID,20.5436,VALID,9,VALID,0.51875,
2002-05-27, 00:58:00,VALID,919.299,VALID,0,VALID,98.1285,VALID,0.0339617,VALID,20.5406,VALID,2,VALID,0.420691,
2002-05-27, 00:59:00,VALID,919.289,VALID,0,VALID,98.1615,VALID,0.0169808,VALID,20.5411,VALID,7,VALID,0.358482,
2002-05-27, 01:00:00,VALID,919.277,VALID,0,VALID,98.2149,VALID,0,VALID,20.5242,VALID,354,VALID,0.43457,
2002-05-27, 01:01:00,VALID,919.256,VALID,0,VALID,98.2709,VALID,0.0679233,VALID,20.5471,VALID,357,VALID,0.510714,
2002-05-27, 01:02:00,VALID,919.239,VALID,0,VALID,98.3052,VALID,0.0339617,VALID,20.5479,VALID,5,VALID,0.52114,
2002-05-27, 01:03:00,VALID,919.231,VALID,0,VALID,98.3459,VALID,0.0169808,VALID,20.5473,VALID,4,VALID,0.129492,
2002-05-27, 01:04:00,VALID,919.223,VALID,0,VALID,98.3548,VALID,0.0849042,VALID,20.5272,VALID,4,VALID,0,
2002-05-27, 01:05:00,VALID,919.223,VALID,0,VALID,98.3764,VALID,0.0339617,VALID,20.5307,VALID,4,VALID,0.0381696,
2002-05-27, 01:06:00,VALID,919.215,VALID,0,VALID,98.4209,VALID,0.0169808,VALID,20.5371,VALID,4,VALID,0,
2002-05-27, 01:07:00,VALID,919.211,VALID,0,VALID,98.4286,VALID,0.0339617,VALID,20.5309,VALID,4,VALID,0,
2002-05-27, 01:08:00,VALID,919.204,VALID,0,VALID,98.4451,VALID,0.0169808,VALID,20.5441,VALID,4,VALID,0,
2002-05-27, 01:09:00,VALID,919.195,VALID,0,VALID,98.4692,VALID,0.0169808,VALID,20.5473,VALID,4,VALID,0,
2002-05-27, 01:10:00,VALID,919.177,VALID,0,VALID,98.501,VALID,0.0339617,VALID,20.56,VALID,4,VALID,0,
2002-05-27, 01:11:00,VALID,919.165,VALID,0,VALID,98.515,VALID,0.0339617,VALID,20.5702,VALID,4,VALID,0,
2002-05-27, 01:12:00,VALID,919.154,VALID,0,VALID,98.5061,VALID,0,VALID,20.5637,VALID,4,VALID,0,
2002-05-27, 01:13:00,VALID,919.139,VALID,0,VALID,98.5201,VALID,0.0679233,VALID,20.5734,VALID,4,VALID,0,
2002-05-27, 01:14:00,VALID,919.127,VALID,0,VALID,98.515,VALID,0.0509425,VALID,20.5764,VALID,320,VALID,0.0620404,
2002-05-27, 01:15:00,VALID,919.1,VALID,0,VALID,98.5328,VALID,0.0339617,VALID,20.57,VALID,319,VALID,0,
2002-05-27, 01:16:00,VALID,919.109,VALID,0,VALID,98.5405,VALID,0.0339617,VALID,20.5501,VALID,319,VALID,0,
2002-05-27, 01:17:00,VALID,919.101,VALID,0,VALID,98.5557,VALID,0.0339617,VALID,20.5635,VALID,319,VALID,0,
2002-05-27, 01:18:00,VALID,919.096,VALID,0,VALID,98.5659,VALID,0,VALID,20.5665,VALID,319,VALID,0.0322266,
2002-05-27, 01:19:00,VALID,919.094,VALID,0,VALID,98.5786,VALID,0.0169808,VALID,20.5697,VALID,319,VALID,0,
2002-05-27, 01:20:00,VALID,919.077,VALID,0,VALID,98.6167,VALID,0.0339617,VALID,20.5789,VALID,319,VALID,0,
2002-05-27, 01:21:00,VALID,919.083,VALID,0,VALID,98.6167,VALID,0.0509425,VALID,20.5786,VALID,319,VALID,0,
2002-05-27, 01:22:00,VALID,919.084,VALID,0,VALID,98.6231,VALID,0.0339617,VALID,20.6249,VALID,319,VALID,0,
2002-05-27, 01:23:00,VALID,919.072,VALID,0,VALID,98.604,VALID,0.0849042,VALID,20.605,VALID,319,VALID,0.0267857,
2002-05-27, 01:24:00,VALID,919.076,VALID,0,VALID,98.5951,VALID,0.0339617,VALID,20.5958,VALID,319,VALID,0.000195313,
2002-05-27, 01:25:00,VALID,919.065,VALID,0,VALID,98.585,VALID,-0.0679233,VALID,20.6003,VALID,319,VALID,0.00111607,
2002-05-27, 01:26:00,VALID,919.065,VALID,0,VALID,98.529,VALID,-0.0339617,VALID,20.5775,VALID,319,VALID,0,
2002-05-27, 01:27:00,VALID,919.048,VALID,0,VALID,98.5099,VALID,-0.0679233,VALID,20.5548,VALID,319,VALID,0,
2002-05-27, 01:28:00,VALID,919.036,VALID,0,VALID,98.4998,VALID,-0.0509425,VALID,20.5354,VALID,319,VALID,0,
2002-05-27, 01:29:00,VALID,919.01,VALID,0,VALID,98.4642,VALID,-0.0339617,VALID,20.5163,VALID,306,VALID,0.256473,
2002-05-27, 01:30:00,VALID,918.978,VALID,0,VALID,98.468,VALID,-0.0679233,VALID,20.4932,VALID,303,VALID,0.0267578,
2002-05-27, 01:31:00,VALID,918.95,VALID,0,VALID,98.482,VALID,-0.0509425,VALID,20.5071,VALID,303,VALID,0.0703125,
2002-05-27, 01:32:00,VALID,918.914,VALID,0,VALID,98.5048,VALID,-0.0509425,VALID,20.4934,VALID,349,VALID,0.306526,
2002-05-27, 01:33:00,VALID,918.899,VALID,0,VALID,98.5188,VALID,-0.0679233,VALID,20.4967,VALID,25,VALID,0.45148,
2002-05-27, 01:34:00,VALID,918.871,VALID,0,VALID,98.5366,VALID,-0.0849042,VALID,20.4969,VALID,27,VALID,0.384706,
2002-05-27, 01:35:00,VALID,918.855,VALID,0,VALID,98.557,VALID,-0.0849042,VALID,20.5131,VALID,25,VALID,0.36808,
2002-05-27, 01:36:00,VALID,918.845,VALID,0,VALID,98.5239,VALID,-0.0169808,VALID,20.4967,VALID,21,VALID,0.548242,
2002-05-27, 01:37:00,VALID,918.833,VALID,0,VALID,98.557,VALID,-0.0509425,VALID,20.5029,VALID,20,VALID,0.478348,
2002-05-27, 01:38:00,VALID,918.817,VALID,0,VALID,98.5697,VALID,-0.0169808,VALID,20.5064,VALID,20,VALID,0.387638,
2002-05-27, 01:39:00,VALID,918.822,VALID,0,VALID,98.5811,VALID,-0.0679233,VALID,20.5133,VALID,23,VALID,0.529883,
2002-05-27, 01:40:00,VALID,918.822,VALID,0,VALID,98.5684,VALID,-0.0509425,VALID,20.5099,VALID,23,VALID,0.471591,
2002-05-27, 01:41:00,VALID,918.81,VALID,0,VALID,98.5557,VALID,-0.0849042,VALID,20.5166,VALID,24,VALID,0.461607,
2002-05-27, 01:42:00,VALID,918.795,VALID,0,VALID,98.5494,VALID,-0.0509425,VALID,20.5133,VALID,22,VALID,0.594336,
2002-05-27, 01:43:00,VALID,918.793,VALID,0,VALID,98.5862,VALID,-0.0849042,VALID,20.5166,VALID,22,VALID,0.351786,
2002-05-27, 01:44:00,VALID,918.78,VALID,0,VALID,98.6091,VALID,-0.0509425,VALID,20.526,VALID,22,VALID,0.228631,
2002-05-27, 01:45:00,VALID,918.762,VALID,0,VALID,98.6002,VALID,-0.0679233,VALID,20.526,VALID,22,VALID,0.0570313,
2002-05-27, 01:46:00,VALID,918.762,VALID,0,VALID,98.5621,VALID,-0.0849042,VALID,20.5228,VALID,22,VALID,0.0142045,
2002-05-27, 01:47:00,VALID,918.76,VALID,0,VALID,98.5532,VALID,-0.0509425,VALID,20.5201,VALID,22,VALID,0.00178571,
2002-05-27, 01:48:00,VALID,918.758,VALID,0,VALID,98.5506,VALID,-0.0679233,VALID,20.4999,VALID,22,VALID,0,
2002-05-27, 01:49:00,VALID,918.737,VALID,0,VALID,98.5481,VALID,-0.0339617,VALID,20.4934,VALID,22,VALID,0,
2002-05-27, 01:50:00,VALID,918.732,VALID,0,VALID,98.5494,VALID,-0.0679233,VALID,20.5002,VALID,22,VALID,0,
2002-05-27, 01:51:00,VALID,918.732,VALID,0,VALID,98.5621,VALID,-0.0679233,VALID,20.4999,VALID,22,VALID,0,
2002-05-27, 01:52:00,VALID,918.729,VALID,0,VALID,98.5544,VALID,-0.0509425,VALID,20.49,VALID,22,VALID,0,
2002-05-27, 01:53:00,VALID,918.726,VALID,0,VALID,98.5506,VALID,-0.0679233,VALID,20.4942,VALID,11,VALID,0.0165179,
2002-05-27, 01:54:00,VALID,918.719,VALID,0,VALID,98.5392,VALID,-0.0509425,VALID,20.4671,VALID,275,VALID,0.178711,
2002-05-27, 01:55:00,VALID,918.706,VALID,0,VALID,98.5583,VALID,0,VALID,20.4668,VALID,268,VALID,0.179018,
2002-05-27, 01:56:00,VALID,918.703,VALID,0,VALID,98.59,VALID,0,VALID,20.4571,VALID,266,VALID,0.0287224,
2002-05-27, 01:57:00,VALID,918.685,VALID,0,VALID,98.6104,VALID,0.0509425,VALID,20.4504,VALID,266,VALID,0,
2002-05-27, 01:58:00,VALID,918.656,VALID,0,VALID,98.618,VALID,0.0339617,VALID,20.4509,VALID,266,VALID,0,
2002-05-27, 01:59:00,VALID,918.635,VALID,0,VALID,98.6435,VALID,0.0339617,VALID,20.4507,VALID,266,VALID,0,
2002-05-27, 02:00:00,VALID,918.607,VALID,0,VALID,98.66,VALID,0.0169808,VALID,20.4611,VALID,266,VALID,0,
2002-05-27, 02:01:00,VALID,918.578,VALID,0,VALID,98.6587,VALID,0,VALID,20.4375,VALID,266,VALID,0,
2002-05-27, 02:02:00,VALID,918.552,VALID,0,VALID,98.6562,VALID,0.0169808,VALID,20.4313,VALID,254,VALID,0.0923713,
2002-05-27, 02:03:00,VALID,918.535,VALID,0,VALID,98.6435,VALID,0,VALID,20.4189,VALID,224,VALID,0.457617,
2002-05-27, 02:04:00,VALID,918.514,VALID,0,VALID,98.6536,VALID,0,VALID,20.4027,VALID,229,VALID,0.382102,
2002-05-27, 02:05:00,VALID,918.493,VALID,0,VALID,98.6841,VALID,-0.0169808,VALID,20.396,VALID,234,VALID,0.515625,
2002-05-27, 02:06:00,VALID,918.482,VALID,0,VALID,98.7032,VALID,0.0169808,VALID,20.3901,VALID,242,VALID,0.37832,
2002-05-27, 02:07:00,VALID,918.48,VALID,0,VALID,98.707,VALID,0,VALID,20.3806,VALID,223,VALID,0.404911,
2002-05-27, 02:08:00,VALID,918.469,VALID,0,VALID,98.7299,VALID,0,VALID,20.3605,VALID,223,VALID,0.122472,
2002-05-27, 02:09:00,VALID,918.463,VALID,0,VALID,98.7681,VALID,0,VALID,20.3766,VALID,243,VALID,0.000976563,
2002-05-27, 02:10:00,VALID,918.465,VALID,0,VALID,98.7668,VALID,0,VALID,20.3667,VALID,291,VALID,0,
2002-05-27, 02:11:00,VALID,918.475,VALID,0,VALID,98.7617,VALID,0,VALID,20.3572,VALID,326,VALID,0.202455,
2002-05-27, 02:12:00,VALID,918.463,VALID,0,VALID,98.7515,VALID,0.0339617,VALID,20.3475,VALID,6,VALID,0.183008,
2002-05-27, 02:13:00,VALID,918.457,VALID,0,VALID,98.777,VALID,0.0339617,VALID,20.3379,VALID,9,VALID,0,
2002-05-27, 02:14:00,VALID,918.447,VALID,0,VALID,98.7935,VALID,0,VALID,20.3411,VALID,9,VALID,0,
2002-05-27, 02:15:00,VALID,918.427,VALID,0,VALID,98.8177,VALID,0,VALID,20.3373,VALID,9,VALID,0,
2002-05-27, 02:16:00,VALID,918.42,VALID,0,VALID,98.7948,VALID,0,VALID,20.3575,VALID,9,VALID,0,
2002-05-27, 02:17:00,VALID,918.413,VALID,0,VALID,98.7859,VALID,0,VALID,20.3408,VALID,9,VALID,0,
2002-05-27, 02:18:00,VALID,918.384,VALID,0,VALID,98.7986,VALID,0.0339617,VALID,20.3381,VALID,9,VALID,0,
2002-05-27, 02:19:00,VALID,918.357,VALID,0,VALID,98.8202,VALID,0.0339617,VALID,20.3341,VALID,9,VALID,0.0464286,
2002-05-27, 02:20:00,VALID,918.339,VALID,0,VALID,98.8393,VALID,0.0339617,VALID,20.3543,VALID,9,VALID,0.00229779,
2002-05-27, 02:21:00,VALID,918.304,VALID,0,VALID,98.8151,VALID,-0.0169808,VALID,20.3513,VALID,9,VALID,0.000195313,
2002-05-27, 02:22:00,VALID,918.274,VALID,0,VALID,98.7706,VALID,0.0169808,VALID,20.322,VALID,9,VALID,0.0703125,
2002-05-27, 02:23:00,VALID,918.256,VALID,0,VALID,98.7604,VALID,0,VALID,20.3055,VALID,9,VALID,0,
2002-05-27, 02:24:00,VALID,918.227,VALID,0,VALID,98.7414,VALID,0.0339617,VALID,20.2981,VALID,9,VALID,0,
2002-05-27, 02:25:00,VALID,918.21,VALID,0,VALID,98.7197,VALID,0,VALID,20.3058,VALID,9,VALID,0,
2002-05-27, 02:26:00,VALID,918.172,VALID,0,VALID,98.7096,VALID,0.0339617,VALID,20.2889,VALID,9,VALID,0,
2002-05-27, 02:27:00,VALID,918.172,VALID,0,VALID,98.6918,VALID,0.0339617,VALID,20.2894,VALID,9,VALID,0,
2002-05-27, 02:28:00,VALID,918.155,VALID,0,VALID,98.6854,VALID,0.0339617,VALID,20.263,VALID,9,VALID,0,
2002-05-27, 02:29:00,VALID,918.145,VALID,0,VALID,98.6371,VALID,0,VALID,20.2633,VALID,9,VALID,0,
2002-05-27, 02:30:00,VALID,918.132,VALID,0,VALID,98.6142,VALID,0.0339617,VALID,20.2539,VALID,9,VALID,0,
2002-05-27, 02:31:00,VALID,918.126,VALID,0,VALID,98.5913,VALID,0.0169808,VALID,20.2374,VALID,9,VALID,0.111384,
2002-05-27, 02:32:00,VALID,918.122,VALID,0,VALID,98.5786,VALID,0,VALID,20.2312,VALID,9,VALID,0.169347,
2002-05-27, 02:33:00,VALID,918.122,VALID,0,VALID,98.5557,VALID,0.0169808,VALID,20.2248,VALID,9,VALID,0,
2002-05-27, 02:34:00,VALID,918.102,VALID,0,VALID,98.5417,VALID,0,VALID,20.2186,VALID,11,VALID,0.146307,
2002-05-27, 02:35:00,VALID,918.092,VALID,0,VALID,98.501,VALID,0.0339617,VALID,20.1984,VALID,12,VALID,0,
2002-05-27, 02:36:00,VALID,918.086,VALID,0,VALID,98.454,VALID,0.0339617,VALID,20.1793,VALID,12,VALID,0,
2002-05-27, 02:37:00,VALID,918.083,VALID,0,VALID,98.4298,VALID,-0.0169808,VALID,20.1602,VALID,12,VALID,0,
2002-05-27, 02:38:00,VALID,918.086,VALID,0,VALID,98.4336,VALID,-0.0849042,VALID,20.155,VALID,12,VALID,0,
2002-05-27, 02:39:00,VALID,918.071,VALID,0,VALID,98.4273,VALID,-0.101885,VALID,20.1517,VALID,12,VALID,0.106836,
2002-05-27, 02:40:00,VALID,918.071,VALID,0,VALID,98.3853,VALID,-0.0849042,VALID,20.1393,VALID,12,VALID,0.00568182,
2002-05-27, 02:41:00,VALID,918.073,VALID,0,VALID,98.3726,VALID,-0.0849042,VALID,20.1194,VALID,12,VALID,0,
2002-05-27, 02:42:00,VALID,918.065,VALID,0,VALID,98.3421,VALID,-0.0849042,VALID,20.1033,VALID,12,VALID,0,
2002-05-27, 02:43:00,VALID,918.063,VALID,0,VALID,98.3383,VALID,-0.118866,VALID,20.1075,VALID,12,VALID,0,
2002-05-27, 02:44:00,VALID,918.046,VALID,0,VALID,98.3268,VALID,-0.0849042,VALID,20.0968,VALID,12,VALID,0,
2002-05-27, 02:45:00,VALID,918.046,VALID,0,VALID,98.3141,VALID,-0.101885,VALID,20.0842,VALID,12,VALID,0,
2002-05-27, 02:46:00,VALID,918.022,VALID,0,VALID,98.2887,VALID,-0.0509425,VALID,20.0876,VALID,12,VALID,0,
2002-05-27, 02:47:00,VALID,918.002,VALID,0,VALID,98.2785,VALID,-0.0849042,VALID,20.0809,VALID,12,VALID,0,
2002-05-27, 02:48:00,VALID,917.982,VALID,0,VALID,98.2569,VALID,-0.101885,VALID,20.065,VALID,12,VALID,0,
2002-05-27, 02:49:00,VALID,917.96,VALID,0,VALID,98.2378,VALID,-0.0849042,VALID,20.0653,VALID,12,VALID,0,
2002-05-27, 02:50:00,VALID,917.93,VALID,0,VALID,98.2035,VALID,-0.101885,VALID,20.0529,VALID,12,VALID,0,
2002-05-27, 02:51:00,VALID,917.922,VALID,0,VALID,98.1857,VALID,-0.0849042,VALID,20.0362,VALID,12,VALID,0,
2002-05-27, 02:52:00,VALID,917.899,VALID,0,VALID,98.159,VALID,-0.101885,VALID,20.033,VALID,12,VALID,0,
2002-05-27, 02:53:00,VALID,917.883,VALID,0,VALID,98.1157,VALID,-0.118866,VALID,20.0104,VALID,12,VALID,0,
2002-05-27, 02:54:00,VALID,917.86,VALID,0,VALID,98.0534,VALID,-0.0679233,VALID,19.9905,VALID,12,VALID,0,
2002-05-27, 02:55:00,VALID,917.833,VALID,0,VALID,97.9339,VALID,0,VALID,19.9574,VALID,12,VALID,0,
2002-05-27, 02:56:00,VALID,917.831,VALID,0,VALID,97.9085,VALID,0,VALID,19.9152,VALID,12,VALID,0.0703125,
2002-05-27, 02:57:00,VALID,917.813,VALID,0,VALID,97.883,VALID,-0.0169808,VALID,19.8955,VALID,12,VALID,0,
2002-05-27, 02:58:00,VALID,917.808,VALID,0,VALID,97.8411,VALID,0,VALID,19.8739,VALID,12,VALID,0.0350379,
2002-05-27, 02:59:00,VALID,917.805,VALID,0,VALID,97.8614,VALID,0,VALID,19.8481,VALID,12,VALID,0.316741,
2002-05-27, 03:00:00,VALID,917.802,VALID,0,VALID,97.8983,VALID,-0.0169808,VALID,19.8347,VALID,12,VALID,0.252344,
2002-05-27, 03:01:00,VALID,917.793,VALID,0,VALID,97.9301,VALID,0,VALID,19.8247,VALID,12,VALID,0.108482,
2002-05-27, 03:02:00,VALID,917.782,VALID,0,VALID,97.9148,VALID,-0.0169808,VALID,19.7989,VALID,12,VALID,0.251379,
2002-05-27, 03:03:00,VALID,917.769,VALID,0,VALID,97.9352,VALID,0,VALID,19.7897,VALID,12,VALID,0.349609,
2002-05-27, 03:04:00,VALID,917.746,VALID,0,VALID,97.9301,VALID,-0.0339617,VALID,19.7601,VALID,12,VALID,0.369792,
2002-05-27, 03:05:00,VALID,917.715,VALID,0,VALID,97.8932,VALID,-0.0169808,VALID,19.7474,VALID,12,VALID,0.405357,
2002-05-27, 03:06:00,VALID,917.689,VALID,0,VALID,97.8538,VALID,-0.0169808,VALID,19.7186,VALID,13,VALID,0.461523,
2002-05-27, 03:07:00,VALID,917.661,VALID,0,VALID,97.8741,VALID,0.0169808,VALID,19.6828,VALID,13,VALID,0.386384,
2002-05-27, 03:08:00,VALID,917.628,VALID,0,VALID,97.9848,VALID,-0.0169808,VALID,19.6764,VALID,13,VALID,0.413373,
2002-05-27, 03:09:00,VALID,917.619,VALID,0,VALID,98.1399,VALID,-0.0169808,VALID,19.6833,VALID,13,VALID,0.356836,
2002-05-27, 03:10:00,VALID,917.617,VALID,0,VALID,98.2289,VALID,-0.0169808,VALID,19.693,VALID,13,VALID,0.408144,
2002-05-27, 03:11:00,VALID,917.605,VALID,0,VALID,98.3141,VALID,-0.0169808,VALID,19.6962,VALID,13,VALID,0.335491,
2002-05-27, 03:12:00,VALID,917.598,VALID,0,VALID,98.365,VALID,0,VALID,19.6833,VALID,13,VALID,0.170508,
2002-05-27, 03:13:00,VALID,917.609,VALID,0,VALID,98.3777,VALID,0.0169808,VALID,19.6669,VALID,13,VALID,0.0310268,
2002-05-27, 03:14:00,VALID,917.606,VALID,0,VALID,98.4006,VALID,0,VALID,19.648,VALID,13,VALID,0.215074,
2002-05-27, 03:15:00,VALID,917.596,VALID,0,VALID,98.4362,VALID,0,VALID,19.6155,VALID,13,VALID,0.263281,
2002-05-27, 03:16:00,VALID,917.582,VALID,0,VALID,98.4438,VALID,-0.0339617,VALID,19.5896,VALID,13,VALID,0.317235,
2002-05-27, 03:17:00,VALID,917.583,VALID,0,VALID,98.4756,VALID,-0.0169808,VALID,19.5703,VALID,13,VALID,0.28058,
2002-05-27, 03:18:00,VALID,917.557,VALID,0,VALID,98.5176,VALID,0,VALID,19.567,VALID,13,VALID,0.147266,
2002-05-27, 03:19:00,VALID,917.548,VALID,0,VALID,98.5799,VALID,-0.0169808,VALID,19.5544,VALID,13,VALID,0,
2002-05-27, 03:20:00,VALID,917.543,VALID,0,VALID,98.6002,VALID,0,VALID,19.5442,VALID,13,VALID,0,
2002-05-27, 03:21:00,VALID,917.533,VALID,0,VALID,98.6218,VALID,0,VALID,19.5278,VALID,13,VALID,0.152344,
2002-05-27, 03:22:00,VALID,917.529,VALID,0,VALID,98.6269,VALID,0,VALID,19.5183,VALID,13,VALID,0.208333,
2002-05-27, 03:23:00,VALID,917.507,VALID,0,VALID,98.6282,VALID,-0.0509425,VALID,19.5121,VALID,13,VALID,0.238839,
2002-05-27, 03:24:00,VALID,917.506,VALID,0,VALID,98.646,VALID,0,VALID,19.4828,VALID,13,VALID,0.0193359,
2002-05-27, 03:25:00,VALID,917.498,VALID,0,VALID,98.6829,VALID,0,VALID,19.4763,VALID,13,VALID,0,
2002-05-27, 03:26:00,VALID,917.484,VALID,0,VALID,98.7058,VALID,0,VALID,19.4771,VALID,13,VALID,0,
2002-05-27, 03:27:00,VALID,917.462,VALID,0,VALID,98.735,VALID,-0.0169808,VALID,19.4734,VALID,13,VALID,0,
2002-05-27, 03:28:00,VALID,917.446,VALID,0,VALID,98.7884,VALID,-0.0169808,VALID,19.4766,VALID,13,VALID,0.079072,
2002-05-27, 03:29:00,VALID,917.416,VALID,0,VALID,98.8126,VALID,-0.0509425,VALID,19.5027,VALID,12,VALID,0.172991,
2002-05-27, 03:30:00,VALID,917.386,VALID,0,VALID,98.8406,VALID,-0.0339617,VALID,19.5091,VALID,12,VALID,0.158203,
2002-05-27, 03:31:00,VALID,917.361,VALID,0,VALID,98.8901,VALID,0,VALID,19.5352,VALID,12,VALID,0.0921875,
2002-05-27, 03:32:00,VALID,917.335,VALID,0,VALID,98.9232,VALID,0,VALID,19.5479,VALID,12,VALID,0.00275735,
2002-05-27, 03:33:00,VALID,917.322,VALID,0,VALID,98.9334,VALID,0,VALID,19.5608,VALID,12,VALID,0,
2002-05-27, 03:34:00,VALID,917.308,VALID,0,VALID,98.9639,VALID,-0.0339617,VALID,19.5772,VALID,12,VALID,0,
2002-05-27, 03:35:00,VALID,917.295,VALID,0,VALID,98.9614,VALID,0.0169808,VALID,19.573,VALID,12,VALID,0,
2002-05-27, 03:36:00,VALID,917.289,VALID,0,VALID,98.9474,VALID,-0.0339617,VALID,19.5645,VALID,12,VALID,0,
2002-05-27, 03:37:00,VALID,917.269,VALID,0,VALID,98.9486,VALID,-0.0169808,VALID,19.5673,VALID,12,VALID,0,
2002-05-27, 03:38:00,VALID,917.258,VALID,0,VALID,98.9614,VALID,0,VALID,19.574,VALID,12,VALID,0,
2002-05-27, 03:39:00,VALID,917.249,VALID,0,VALID,98.9906,VALID,0,VALID,19.5906,VALID,12,VALID,0,
2002-05-27, 03:40:00,VALID,917.241,VALID,0,VALID,99.0071,VALID,-0.0679233,VALID,19.5968,VALID,12,VALID,0.124527,